Location: Bradford+West+Gwillimbury,+ON,+Canadà
(44.1162°N, 79.5735°W)
Time: 05:09:08
(UTC-04:00)

STARLINK-2733 - Visible Passes

Search period start: 28 October 2021 00:00
Search period end: 07 November 2021 00:00
Orbit: 546 x 548 km, 53.1° (Epoch: 27 October)

Date Brightness Start Highest point End Pass type
(mag) Time Alt. Az. Time Alt. Az. Time Alt. Az.
28 Oct 5.8 05:25:09 17° SSE 05:26:30 20° SE 05:29:32 10° E visible
28 Oct 3.6 07:01:31 10° WSW 07:05:38 74° NNW 07:09:46 10° NE visible
29 Oct 5.4 05:19:55 26° SE 05:20:05 26° SE 05:23:33 10° ENE visible
29 Oct 3.7 06:55:33 12° WSW 06:59:22 59° NNW 07:03:27 10° NE visible
30 Oct 5.3 05:14:29 31° ESE 05:14:29 31° ESE 05:17:26 10° ENE visible
30 Oct 4.0 06:50:07 17° W 06:53:07 48° NNW 06:57:08 10° NE visible
31 Oct 5.5 05:08:55 29° E 05:08:55 29° E 05:11:16 10° ENE visible
31 Oct 4.2 06:44:32 21° W 06:46:53 40° NNW 06:50:49 10° NE visible
01 Nov 5.8 05:03:15 24° ENE 05:03:15 24° ENE 05:05:02 10° ENE visible
01 Nov 4.5 06:38:51 23° WNW 06:40:41 35° NNW 06:44:30 10° NE visible
02 Nov 6.1 04:57:28 20° ENE 04:57:28 20° ENE 04:58:47 10° ENE visible
02 Nov 4.7 06:33:05 25° NW 06:34:30 31° NNW 06:38:12 10° NE visible
03 Nov 6.4 04:51:38 16° NE 04:51:38 16° NE 04:52:30 10° NE visible
03 Nov 4.8 06:27:15 25° NW 06:28:20 28° NNW 06:31:56 10° NE visible
04 Nov 6.6 04:45:46 13° NE 04:45:46 13° NE 04:46:13 10° NE visible
04 Nov 4.9 06:21:22 24° NNW 06:22:11 26° N 06:25:42 10° NE visible
05 Nov 6.9 04:39:51 10° NE 04:39:51 10° NE 04:39:54 10° NE visible
05 Nov 5.0 06:15:27 23° NNW 06:16:03 24° N 06:19:28 10° NE visible
06 Nov 5.1 06:09:31 23° NNW 06:09:55 23° N 06:13:17 10° NE visible
